Usenet-Anleitung | Usenext-test | Usenet kostenlos | Cleverzocken.com

Tv - Tvshow

Datum Titel Typ Bild Ton Größe
19.05.2019 Fair Go 2019 05 13 HDTV x264-FiHTV Show HDTV AAC 136 MB
19.05.2019 Steve 2019 05 17 720p HDTV x264-CRiMSON Show HDTV AC3 1348 MB
19.05.2019 Steve 2019 05 17 HDTV x264-CRiMSON Show HDTV Stereo 372 MB
19.05.2019 Jimmy Kimmel 2019 05 17 Ryan Seacrest WEB x264-TBS Show Web-Rip Stereo 326 MB
19.05.2019 Jimmy Kimmel 2019 05 17 Ryan Seacrest 720p WEB x264-TBS Show Web-Rip AC3 1007 MB
19.05.2019 Destination Flavour Japan Best Bites 2014 720p HDTV x264-CBFM Show HDTV AC3 936 MB
19.05.2019 Harry And Meghan A Love Story 2018 720p HDTV x264-CBFM Show HDTV AC3 1219 MB
19.05.2019 Hitlers Last Year Part 1 EXTENDED 720p HDTV x264-CBFM Show HDTV AC3 1361 MB
19.05.2019 Hitlers Last Year Part 1 1080p HDTV H264-CBFM Show HDTV AC3 2094 MB
19.05.2019 Hitlers Last Year Part 2 1080p HDTV H264-CBFM Show HDTV AC3 1797 MB
19.05.2019 Hitlers Last Year Part 2 EXTENDED 720p HDTV x264-CBFM Show HDTV AC3 1244 MB
19.05.2019 Jesus Countdown To Calvary 2018 1080p HDTV H264-CBFM Show HDTV AC3 1880 MB
19.05.2019 Jesus Countdown To Calvary 2018 720p HDTV x264-CBFM Show HDTV AC3 990 MB
19.05.2019 Myth Or Science The Power Of Poo 2018 1080p HDTV H264-CBFM Show HDTV AC3 1503 MB
19.05.2019 Myth Or Science The Power Of Poo 2018 720p HDTV x264-CBFM Show HDTV AC3 847 MB
19.05.2019 Nintendo Quest 2015 720p HDTV x264-CBFM Show HDTV AC3 1753 MB
19.05.2019 Not Quite Hollywood 2008 720p HDTV x264-CBFM Show HDTV AC3 2468 MB
19.05.2019 Not Quite Hollywood 2008 1080p HDTV H264-CBFM Show HDTV AC3 3401 MB
19.05.2019 Peter Fitzsimons WWI 2017 720p HDTV x264-CBFM Show HDTV AC3 409 MB
19.05.2019 Peter Fitzsimons WWI 2017 1080p HDTV H264-CBFM Show HDTV AC3 697 MB
19.05.2019 Sandringham The Queen At Christmas 2018 720p HDTV x264-CBFM Show HDTV AC3 712 MB
19.05.2019 The Contraceptive Pill How Safe Is It 2018 720p HDTV x264-CBFM Show HDTV AC3 617 MB
19.05.2019 The Contraceptive Pill How Safe Is It 2018 1080p HDTV H264-CBFM Show HDTV AC3 1403 MB
19.05.2019 The Crater A True Vietnam War Story 2015 HR PDTV x264-CBFM Show TV-Rip Stereo 901 MB
19.05.2019 The Vikings Uncovered Part 1 1080p HDTV H264-CBFM Show HDTV AC3 1640 MB
19.05.2019 The Vikings Uncovered Part 2 1080p HDTV H264-CBFM Show HDTV AC3 1625 MB
19.05.2019 Vice Trumps First Year 2018 720p HDTV x264-CBFM Show HDTV AC3 558 MB
19.05.2019 Vice Trumps First Year 2018 1080p HDTV H264-CBFM Show HDTV AC3 1041 MB
19.05.2019 Viceland Presents Cut-Off 2016 720p HDTV x264-CBFM Show HDTV AC3 800 MB
19.05.2019 Viceland Presents Cut-Off 2016 1080p HDTV H264-CBFM Show HDTV AC3 1278 MB
Seitennavigation: «« Erste | « Zurück | 6 | 7 | 8 | 9 | 10 | 11 | 12 | 13 | 14 | 15 | Weiter » | Letzte »»
30 (271 - 300) von 54174 (1806 Seiten)
Copyright 2010 - 2012 by topdl.com | powered by Usenet-Anleitung | Design by Usenetlayout